Weather in Benidorm

Spain     38°32′39″N   0°07′57″E
temp.,
°C
wind,
m/s
gust,
m/s
humid.,
%
clouds,
%
prec.,
mm/h
press.,
hPa
HPBL,
m
22 january, sat
sat2201:00+10nne447414 0.1 1028309
04:00+10ene458097 0.4 1029525
07:00+10ne4582100 1.3 1029524
10:00+10ene447891 0.3 1030619
13:00+10ene337689 0.5 1030607
16:00+10e338094 0.3 1029447
19:00+10ne227921 0.4 1029326
22:00+10n217526 0.1 1029203
23 january, sun
sun2301:00+10ne117219 0.1 1028226
04:00+11ene336925 0.1 1028444
07:00+11ene337091 0.3 1027651
10:00+11ene447465 0.4 1028670
13:00+11ene447555 0.8 1028630
16:00+11e557067 0.4 1026876
19:00+11ene556848 0.5 1027887
22:00+10nne55675 0.0 1028643
24 january, mon
mon2401:00+10n546162 0.0 1027233
04:00+10n435869 0.0 1026242
07:00+10n336177 0.0 1026172
10:00+11n235969 0.0 1028230
13:00+12ene445712 0.0 1028814
16:00+13ene665818 0.0 1027867
19:00+11nne55664 0.0 1029476
22:00+10n44685 0.0 1030217
25 january, tue
tue2501:00+10n556827 0.0 1031199
04:00+11n4570100 0.1 1031264
07:00+11nne4575100 0.2 1031402
10:00+12ne577486 0.2 1032667
13:00+12ene676557 0.3 1032976
16:00+13ene666519 0.0 10311035
19:00+12ne567041 0.1 1032709
22:00+11nne556934 0.0 1033570
26 january, wed
wed2601:00+11nne447210 0.0 1032283
04:00+10nne447411 0.0 1031363
07:00+10nne33734 0.0 1031267
10:00+11ne33724 0.0 1031421
13:00+12ese22720 0.0 1030383
16:00+11e33774 0.0 1028299
19:00+11ene23825 0.0 1028352
22:00+11nne3379100 0.0 1028254